Location: Newark
(15.4608°S, 41.1635°W)
Time: 00:38:54
(UTC+00:00)

Transit 2A Rocket - All Passes

Search period start: 31 July 2021 00:00
Search period end: 10 August 2021 00:00
Orbit: 589 x 913 km, 66.7° (Epoch: 30 July)

Date Brightness Start Highest point End Pass type
(mag) Time Alt. Az. Time Alt. Az. Time Alt. Az.
31 Jul - 03:32:57 10° N 03:38:48 50° ENE 03:44:35 10° SE night (unlit)
31 Jul - 05:17:52 10° W 05:21:27 16° WSW 05:25:00 10° SSW night (unlit)
31 Jul - 14:14:36 10° SSE 14:18:09 23° ESE 14:21:35 10° ENE daylight
31 Jul - 15:57:50 10° WSW 16:00:22 15° WNW 16:02:51 10° NW daylight
01 Aug - 02:51:19 10° NNE 02:56:17 26° ENE 03:01:11 10° SE night (unlit)
01 Aug - 04:33:26 10° NW 04:38:41 30° WSW 04:43:51 10° S night (unlit)
01 Aug - 13:34:45 10° SE 13:35:22 10° ESE 13:35:59 10° ESE daylight
01 Aug - 15:13:54 10° SW 15:17:55 35° WNW 15:21:47 10° N daylight
02 Aug - 02:11:06 10° NE 02:13:48 13° ENE 02:16:30 10° E night (unlit)
02 Aug - 03:50:03 10° NW 03:56:01 57° WSW 04:01:53 10° S night (unlit)
02 Aug - 14:30:57 10° SSW 14:35:24 87° WNW 14:39:40 10° NNE daylight
03 Aug - 03:07:19 10° NNW 03:13:25 77° ENE 03:19:24 10° SSE night (unlit)
03 Aug - 13:48:39 10° S 13:52:47 38° ESE 13:56:47 10° NE daylight
04 Aug - 02:25:14 10° N 02:30:52 40° ENE 02:36:25 10° SE night (unlit)
04 Aug - 04:09:05 10° WNW 04:13:24 20° WSW 04:17:40 10° SSW night (unlit)
04 Aug - 13:07:08 10° SSE 13:10:05 17° ESE 13:12:56 10° ENE daylight
04 Aug - 14:49:09 10° WSW 14:52:23 20° WNW 14:55:34 10° NNW daylight
05 Aug - 01:43:58 10° NNE 01:48:21 21° ENE 01:52:42 10° ESE night (unlit)
05 Aug - 03:25:06 10° NW 03:30:41 37° WSW 03:36:09 10° S night (unlit)
05 Aug - 14:05:41 10° SW 14:09:55 48° WNW 14:14:01 10° N daylight
06 Aug - 02:41:58 10° NNW 02:48:02 72° WSW 02:53:59 10° SSE night (unlit)
06 Aug - 13:22:59 10° SSW 13:27:22 68° ESE 13:31:36 10° NNE daylight
07 Aug - 01:59:27 10° N 02:05:27 61° ENE 02:11:20 10° SSE night (unlit)
07 Aug - 03:45:31 10° W 03:48:09 13° WSW 03:50:46 10° SW night (unlit)
07 Aug - 12:40:54 10° S 12:44:44 28° ESE 12:48:26 10° NE daylight
07 Aug - 14:25:18 10° W 14:26:51 12° WNW 14:28:24 10° NW daylight
08 Aug - 01:17:37 10° NNE 01:22:55 32° ENE 01:28:08 10° SE night (unlit)
08 Aug - 03:00:30 10° WNW 03:05:23 25° WSW 03:10:09 10° SSW night (unlit)
08 Aug - 11:59:57 10° SE 12:01:59 13° ESE 12:03:59 10° E daylight
08 Aug - 13:40:42 10° SW 13:44:25 27° WNW 13:48:02 10° NNW daylight
09 Aug - 00:36:49 10° NE 00:40:25 16° ENE 00:43:58 10° ESE night (unlit)
09 Aug - 02:16:52 10° NW 02:22:41 47° WSW 02:28:22 10° S night (unlit)
09 Aug - 12:57:33 10° SSW 13:01:55 67° WNW 13:06:08 10° NNE daylight
